User: anonymous   Login
Location: *
(46.1333°S, 161.2167°W)
Time: 18:40:51
(UTC+00:00)
Language:

Cosmos 2298 Rocket - Orbit

View from above orbital plane
View from above orbital plane
View from above satellite
View from above satellite

Ground track
Ground track

The orbit data is extracted from the following two-line orbital elements,

1 23432U 94083B   21135.51045704  .00000022  00000-0  17478-4 0  9991
2 23432  74.0326 205.8964 0004312  61.8607  37.6362 14.33558717380743
Epoch (UTC): 15 May 2021 12:15:03
Eccentricity: 0.0004312
inclination: 74.0326°
perigee height: 777 km
apogee height: 783 km
right ascension of ascending node: 205.8964°
argument of perigee: 61.8607°
revolutions per day: 14.33558717
mean anomaly at epoch: 37.6362°
orbit number at epoch: 38074

The dashed part of the orbit path shows where the satellite is in the earth's shadow,  

DLR